DW9918 Weather Reports


Display with metric or nautical units.
time (UTC)temp
F
wind
direction
speed
MPH
gust
MPH
rain 1hr
in
rain 24hr
in
rain mn
in
humidity
%
barometer
mb
20260502163020 70 110 4.0 7.0 0.00 0.00 0.00 41 1021.4
20260502161512 70 108 5.0 8.0 0.00 0.00 0.00 42 1021.4
20260502151533 71 94 9.0 11.0 0.00 0.00 0.00 42 1021.9
20260502123022 72 252 3.0 7.0 0.00 0.00 0.00 37 1023.8
20260502121505 72 310 4.0 8.0 0.00 0.00 0.00 37 1024.0
20260502114503 72 245 4.0 8.0 0.00 0.00 0.00 37 1024.4
20260502113018 73 311 2.0 6.0 0.00 0.00 0.00 37 1024.6
20260502111527 72 311 0.0 7.0 0.00 0.00 0.00 38 1024.9
20260502110018 72 131 0.0 7.0 0.00 0.00 0.00 38 1025.1
20260502104509 72 225 1.0 5.0 0.00 0.00 0.00 39 1025.3
20260502103006 70 35 1.0 8.0 0.00 0.00 0.00 39 1025.5
20260502101526 69 250 3.0 6.0 0.00 0.00 0.00 40 1025.6
20260502091512 68 293 3.0 5.0 0.00 0.00 0.00 44 1026.1
20260502071508 58 296 6.0 9.0 0.00 0.00 0.00 59 1026.6
20260502070028 57 296 6.0 10.0 0.00 0.00 0.00 61 1026.6
20260502064523 55 304 5.0 7.0 0.00 0.00 0.00 68 1026.6
20260502063021 53 279 2.0 5.0 0.00 0.00 0.00 73 1026.6
20260502061535 51 283 2.0 5.0 0.00 0.00 0.00 73 1026.6
20260502060020 50 258 3.0 5.0 0.00 0.00 0.00 75 1026.6
20260502054511 48 215 2.0 4.0 0.00 0.00 0.00 75 1026.6
20260502053028 47 231 0.0 3.0 0.00 0.00 0.00 79 1026.6
20260502051513 45 224 2.0 3.0 0.00 0.00 0.00 79 1026.6
20260502050004 44 226 1.0 2.0 0.00 0.00 0.00 80 1026.5
20260502044504 43 245 0.0 1.0 0.00 0.00 0.00 80 1026.5
20260502043021 42 270 0.0 1.0 0.00 0.00 0.00 82 1026.5
20260502041524 42 264 0.0 1.0 0.00 0.00 0.00 82 1026.6
20260502040014 42 195 0.0 1.0 0.00 0.00 0.00 81 1026.5
20260502034508 43 221 0.0 0.0 0.00 0.00 0.00 81 1026.4
20260502033004 43 221 0.0 1.0 0.00 0.00 0.00 80 1026.3
20260502031504 43 225 1.0 2.0 0.00 0.00 0.00 80 1026.2
20260502030021 43 224 0.0 1.0 0.00 0.00 0.00 80 1026.4
20260502024517 43 224 0.0 1.0 0.00 0.00 0.00 79 1026.4
20260502023013 44 227 0.0 1.0 0.00 0.00 0.00 78 1026.4
20260502021510 44 219 0.0 2.0 0.00 0.00 0.00 78 1026.5
20260502020008 44 219 1.0 2.0 0.00 0.00 0.00 77 1026.4
20260502014504 44 231 1.0 3.0 0.00 0.00 0.00 77 1026.4
20260502013023 45 245 0.0 3.0 0.00 0.00 0.00 77 1026.5
20260502011523 45 219 0.0 2.0 0.00 0.00 0.00 77 1026.6
20260502010015 45 225 2.0 3.0 0.00 0.00 0.00 77 1026.6
20260502004510 45 186 1.0 2.0 0.00 0.00 0.00 77 1026.8
20260502003013 45 244 0.0 2.0 0.00 0.00 0.00 76 1026.9
20260502001528 46 235 1.0 4.0 0.00 0.00 0.00 76 1026.9
20260502000026 46 113 1.0 3.0 0.00 0.00 0.00 76 1026.9
20260501234527 46 212 1.0 2.0 0.00 0.00 0.00 75 1026.9
20260501233022 47 207 0.0 2.0 0.00 0.00 0.00 74 1026.8
20260501231514 47 236 1.0 3.0 0.00 0.00 0.00 73 1026.8
20260501230013 48 157 0.0 3.0 0.00 0.00 0.00 71 1026.8
20260501224531 49 221 1.0 3.0 0.00 0.00 0.00 70 1026.8
20260501223025 50 223 1.0 3.0 0.00 0.00 0.00 67 1026.8
20260501221525 51 208 0.0 2.0 0.00 0.00 0.00 65 1026.8
20260501220022 51 228 1.0 2.0 0.00 0.00 0.00 65 1026.7
20260501214517 51 224 0.0 1.0 0.00 0.00 0.00 68 1026.5
20260501213016 52 201 0.0 1.0 0.00 0.00 0.00 66 1026.4
20260501211531 52 146 0.0 1.0 0.00 0.00 0.00 62 1026.3
20260501210030 53 210 0.0 1.0 0.00 0.00 0.00 60 1026.2
20260501204539 53 229 1.0 2.0 0.00 0.00 0.00 61 1026.2
20260501203022 53 231 1.0 1.0 0.00 0.00 0.00 60 1026.2
20260501201504 54 260 0.0 0.0 0.00 0.00 0.00 62 1026.0
20260501200002 54 236 0.0 1.0 0.00 0.00 0.00 60 1026.0
20260501194508 55 237 0.0 1.0 0.00 0.00 0.00 57 1025.9
20260501193019 55 239 0.0 1.0 0.00 0.00 0.00 54 1025.8
20260501191507 56 226 0.0 1.0 0.00 0.00 0.00 55 1025.8
20260501190006 57 221 0.0 1.0 0.00 0.00 0.00 52 1025.6
20260501184510 58 209 0.0 1.0 0.00 0.00 0.00 50 1025.5
20260501183002 59 210 0.0 1.0 0.00 0.00 0.00 48 1025.4
20260501181516 62 210 0.0 2.0 0.00 0.00 0.00 44 1025.3
20260501180016 64 195 0.0 2.0 0.00 0.00 0.00 41 1025.3
20260501174538 65 202 0.0 1.0 0.00 0.00 0.00 36 1025.3
20260501173010 65 227 0.0 4.0 0.00 0.00 0.00 37 1025.3
20260501171527 64 226 3.0 5.0 0.00 0.00 0.00 36 1025.2